Regional Weather Roundup
Issued by NWS

Home | Current Version | Previous Version | Graphics & Text | Print | Product List | Glossary On
Versions: 1 2 3 4 5 6 7 8 9 10 11 12 13 14 15 16 17 18 19 20 21 22 23 24 25 26 27 28 29 30 31 32 33 34 35 36 37 38 39 40 41 42 43 44 45 46 47 48 49 50
000
ASUS44 KMEG 180110
RWRTN
TENNESSEE HOURLY STATE WEATHER ROUNDUP
NATIONAL WEATHER SERVICE MEMPHIS TN
800 PM CDT THU APR 17 2014

TNZ002-004-019-021-049-052-054-088>092-180200-
WEST TENNESSEE

CITY           SKY/WX    TMP DP  RH WIND       PRES   REMARKS
MEMPHIS INTL   MOCLDY    66  41  40 SE8       30.21R
NWS MEMPHIS      N/A     64 N/A N/A MISG        N/A
JACKSON        MOCLDY    64  36  35 CALM      30.23R
DYERSBURG      PTCLDY    63  37  39 E3        30.24R
UNION CITY     CLEAR     61  41  48 CALM      30.22R
PARIS          CLEAR     57  38  49 CALM      30.23R
LEXINGTON      CLEAR     63  37  39 CALM      30.23R
SILERTON         N/A     60  40  48 NE2         N/A
SAVANNAH       MOCLDY    61  43  51 CALM      30.23R
$$

TNZ008-025-027-028-033-062-065-066-180200-
NORTH MIDDLE TENNESSEE

CITY           SKY/WX    TMP DP  RH WIND       PRES   REMARKS
NASHVILLE      MOCLDY    62  37  39 CALM      30.26S
DICKSON        MOCLDY    61  32  33 S3        30.24S
CLARKSVILLE    CLEAR     58  37  45 SE7       30.24R
SMYRNA         MOCLDY    58  41  53 CALM      30.27R
MURFREESBORO   MOCLDY    60  42  51 CALM      30.26R
COOKEVILLE     CLEAR     59  37  44 CALM      30.28R
LIVINGSTON     PTCLDY    58  28  32 S5        30.29R
GALLATIN       MOCLDY    61  40  45 CALM      30.27S
CROSSVILLE     PTCLDY    55  33  43 CALM      30.31R
$$

TNZ061-075-076-078-094-096-097-180200-
SOUTH MIDDLE TENNESSEE

CITY           SKY/WX    TMP DP  RH WIND       PRES   REMARKS
LEWISBURG      MOCLDY    58  41  53 SE3       30.25S
FAYETTEVILLE   CLOUDY    58  41  53 SE7       30.26S
TULLAHOMA      CLEAR     61  37  41 SE5       30.28R
WINCHESTER     CLEAR     57  41  54 SE3       30.28S
MCMINNVILLE    CLEAR     61  37  41 CALM      30.28R
COLUMBIA       CLEAR     61  45  55 CALM      30.24R
SHELBYVILLE    MOCLDY    63  41  45 SE3       30.27S
$$

TNZ017-018-042-046-047-180200-
NORTHEAST TENNESSEE

CITY           SKY/WX    TMP DP  RH WIND       PRES   REMARKS
TRI CITIES     PTCLDY    58  18  21 E9        30.34R
ELIZABETHTON   CLEAR     54  21  28 CALM      30.37R
$$

TNZ012-013-036-069-073-074-180200-
CENTRAL EAST TENNESSEE

CITY           SKY/WX    TMP DP  RH WIND       PRES   REMARKS
KNOXVILLE      MOCLDY    63  32  31 W3        30.29R
OAK RIDGE      PTCLDY    59  35  40 CALM      30.31R
$$

TNZ083-085-099-180200-
SOUTHEAST TENNESSEE

CITY           SKY/WX    TMP DP  RH WIND       PRES   REMARKS
CHATTANOOGA    CLOUDY    63  40  42 SE7       30.30R
$$

SKY/WX REPORTED AS FAIR MEANS FEW OR NO CLOUDS BELOW
12 THOUSAND FEET.




USA.gov is the U.S. government's official web portal to all federal, state and local government web resources and services.